Location: Unspecified
(29.9680°N, 0.0000°E)
Time: 18:17:06
(UTC+00:00)

Explorer 7 - Pass Details

Date: 26 June 2019
Orbit: 485 x 680 km, 50.3° (Epoch: 16 July)

Event Time Altitude Azimuth Distance (km) Brightness Sun altitude
Rises 15:45:35 0° 288° (WNW) 3,011 11.4 40.3°
Reaches altitude 10° 15:49:31 10° 256° (WSW) 2,108 10.9 39.4°
Maximum altitude 15:51:12 12° 236° (SW) 1,995 10.4 39.1°
Drops below altitude 10° 15:52:53 10° 216° (SW) 2,106 10.2 38.7°
Sets 15:56:50 0° 184° (S) 3,005 10.6 37.9°
